Year,Month,Day,Hour,Minute,Value (Times are PST for temperature in C)
2019,03,21,00,00,10.10
2019,03,21,00,01,10.10
2019,03,21,00,02,10.10
2019,03,21,00,03,10.10
2019,03,21,00,04,10.10
2019,03,21,00,05,10.00
2019,03,21,00,06,10.00
2019,03,21,00,07,10.00
2019,03,21,00,08,10.00
2019,03,21,00,09,10.00
2019,03,21,00,10,10.00
2019,03,21,00,11,9.90
2019,03,21,00,12,9.90
2019,03,21,00,13,9.90
2019,03,21,00,14,9.90
2019,03,21,00,15,9.90
2019,03,21,00,16,9.90
2019,03,21,00,17,9.90
2019,03,21,00,18,9.90
2019,03,21,00,19,9.90
2019,03,21,00,20,10.00
2019,03,21,00,21,10.00
2019,03,21,00,22,10.00
2019,03,21,00,23,10.10
2019,03,21,00,24,10.10
2019,03,21,00,25,10.20
2019,03,21,00,26,10.20
2019,03,21,00,27,10.20
2019,03,21,00,28,10.30
2019,03,21,00,29,10.30
2019,03,21,00,30,10.40
2019,03,21,00,31,10.40
2019,03,21,00,32,10.40
2019,03,21,00,33,10.50
2019,03,21,00,34,10.50
2019,03,21,00,35,10.60
2019,03,21,00,36,10.60
2019,03,21,00,37,10.60
2019,03,21,00,38,10.60
2019,03,21,00,39,10.70
2019,03,21,00,40,10.70
2019,03,21,00,41,10.70
2019,03,21,00,42,10.70
2019,03,21,00,43,10.70
2019,03,21,00,44,10.80
2019,03,21,00,45,10.80
2019,03,21,00,46,10.80
2019,03,21,00,47,10.80
2019,03,21,00,48,10.80
2019,03,21,00,49,10.80
2019,03,21,00,50,10.90
2019,03,21,00,51,10.90
2019,03,21,00,52,10.90
2019,03,21,00,53,10.90
2019,03,21,00,54,10.90
2019,03,21,00,55,10.90
2019,03,21,00,56,10.90
2019,03,21,00,57,10.90
2019,03,21,00,58,10.80
2019,03,21,00,59,10.80
2019,03,21,01,00,10.80
2019,03,21,01,01,10.80
2019,03,21,01,02,10.80
2019,03,21,01,03,10.80
2019,03,21,01,04,10.80
2019,03,21,01,05,10.80
2019,03,21,01,06,10.80
2019,03,21,01,07,10.80
2019,03,21,01,08,10.70
2019,03,21,01,09,10.70
2019,03,21,01,10,10.60
2019,03,21,01,11,10.50
2019,03,21,01,12,10.50
2019,03,21,01,13,10.40
2019,03,21,01,14,10.40
2019,03,21,01,15,10.30
2019,03,21,01,16,10.30
2019,03,21,01,17,10.20
2019,03,21,01,18,10.20
2019,03,21,01,19,10.10
2019,03,21,01,20,10.10
2019,03,21,01,21,10.10
2019,03,21,01,22,10.00
2019,03,21,01,23,10.00
2019,03,21,01,24,9.90
2019,03,21,01,25,9.90
2019,03,21,01,26,10.00
2019,03,21,01,27,10.00
2019,03,21,01,28,10.00
2019,03,21,01,29,10.00
2019,03,21,01,30,10.10
2019,03,21,01,31,10.10
2019,03,21,01,32,10.10
2019,03,21,01,33,10.10
2019,03,21,01,34,10.10
2019,03,21,01,35,10.10
2019,03,21,01,36,10.10
2019,03,21,01,37,10.10
2019,03,21,01,38,10.10
2019,03,21,01,39,10.10
2019,03,21,01,40,10.10
2019,03,21,01,41,10.10
2019,03,21,01,42,10.10
2019,03,21,01,43,10.20
2019,03,21,01,44,10.20
2019,03,21,01,45,10.20
2019,03,21,01,46,10.20
2019,03,21,01,47,10.20
2019,03,21,01,48,10.20
2019,03,21,01,49,10.20
2019,03,21,01,50,10.20
2019,03,21,01,51,10.20
2019,03,21,01,52,10.20
2019,03,21,01,53,10.10
2019,03,21,01,54,10.10
2019,03,21,01,55,10.10
2019,03,21,01,56,10.10
2019,03,21,01,57,10.10
2019,03,21,01,58,10.10
2019,03,21,01,59,10.20
2019,03,21,02,00,10.20
2019,03,21,02,01,10.20
2019,03,21,02,02,10.30
2019,03,21,02,03,10.30
2019,03,21,02,04,10.30
2019,03,21,02,05,10.40
2019,03,21,02,06,10.30
2019,03,21,02,07,10.40
2019,03,21,02,08,10.40
2019,03,21,02,09,10.40
2019,03,21,02,10,10.40
2019,03,21,02,11,10.30
2019,03,21,02,12,10.30
2019,03,21,02,13,10.30
2019,03,21,02,14,10.30
2019,03,21,02,15,10.30
2019,03,21,02,16,10.30
2019,03,21,02,17,10.20
2019,03,21,02,18,10.20
2019,03,21,02,19,10.20
2019,03,21,02,20,10.10
2019,03,21,02,21,10.10
2019,03,21,02,22,10.10
2019,03,21,02,23,10.00
2019,03,21,02,24,10.00
2019,03,21,02,25,10.00
2019,03,21,02,26,9.90
2019,03,21,02,27,9.90
2019,03,21,02,28,9.80
2019,03,21,02,29,9.80
2019,03,21,02,30,9.80
2019,03,21,02,31,9.70
2019,03,21,02,32,9.70
2019,03,21,02,33,9.60
2019,03,21,02,34,9.60
2019,03,21,02,35,9.60
2019,03,21,02,36,9.50
2019,03,21,02,37,9.40
2019,03,21,02,38,9.40
2019,03,21,02,39,9.30
2019,03,21,02,40,9.30
2019,03,21,02,41,9.30
2019,03,21,02,42,9.30
2019,03,21,02,43,9.30
2019,03,21,02,44,9.30
2019,03,21,02,45,9.30
2019,03,21,02,46,9.30
2019,03,21,02,47,9.20
2019,03,21,02,48,9.20
2019,03,21,02,49,9.20
2019,03,21,02,50,9.20
2019,03,21,02,51,9.20
2019,03,21,02,52,9.20
2019,03,21,02,53,9.20
2019,03,21,02,54,9.20
2019,03,21,02,55,9.20
2019,03,21,02,56,9.20
2019,03,21,02,57,9.20
2019,03,21,02,58,9.20
2019,03,21,02,59,9.20
2019,03,21,03,00,9.20
2019,03,21,03,01,9.20
2019,03,21,03,02,9.20
2019,03,21,03,03,9.20
2019,03,21,03,04,9.20
2019,03,21,03,05,9.20
2019,03,21,03,06,9.20
2019,03,21,03,07,9.20
2019,03,21,03,08,9.20
2019,03,21,03,09,9.20
2019,03,21,03,10,9.20
2019,03,21,03,11,9.20
2019,03,21,03,12,9.20
2019,03,21,03,13,9.20
2019,03,21,03,14,9.20
2019,03,21,03,15,9.20
2019,03,21,03,16,9.20
2019,03,21,03,17,9.20
2019,03,21,03,18,9.20
2019,03,21,03,19,9.20
2019,03,21,03,20,9.20
2019,03,21,03,21,9.20
2019,03,21,03,22,9.20
2019,03,21,03,23,9.20
2019,03,21,03,24,9.20
2019,03,21,03,25,9.20
2019,03,21,03,26,9.20
2019,03,21,03,27,9.20
2019,03,21,03,28,9.20
2019,03,21,03,29,9.20
2019,03,21,03,30,9.20
2019,03,21,03,31,9.20
2019,03,21,03,32,9.20
2019,03,21,03,33,9.20
2019,03,21,03,34,9.20
2019,03,21,03,35,9.20
2019,03,21,03,36,9.20
2019,03,21,03,37,9.20
2019,03,21,03,38,9.20
2019,03,21,03,39,9.20
2019,03,21,03,40,9.20
2019,03,21,03,41,9.20
2019,03,21,03,42,9.20
2019,03,21,03,43,9.20
2019,03,21,03,44,9.20
2019,03,21,03,45,9.10
2019,03,21,03,46,9.10
2019,03,21,03,47,9.10
2019,03,21,03,48,9.20
2019,03,21,03,49,9.20
2019,03,21,03,50,9.20
2019,03,21,03,51,9.20
2019,03,21,03,52,9.20
2019,03,21,03,53,9.20
2019,03,21,03,54,9.30
2019,03,21,03,55,9.30
2019,03,21,03,56,9.30
2019,03,21,03,57,9.30
2019,03,21,03,58,9.30
2019,03,21,03,59,9.30
2019,03,21,04,00,9.30
2019,03,21,04,01,9.30
2019,03,21,04,02,9.30
2019,03,21,04,03,9.30
2019,03,21,04,04,9.30
2019,03,21,04,05,9.30
2019,03,21,04,06,9.30
2019,03,21,04,07,9.20
2019,03,21,04,08,9.20
2019,03,21,04,09,9.20
2019,03,21,04,10,9.20
2019,03,21,04,11,9.20
2019,03,21,04,12,9.20
2019,03,21,04,13,9.20
2019,03,21,04,14,9.20
2019,03,21,04,15,9.20
2019,03,21,04,16,9.10
2019,03,21,04,17,9.10
2019,03,21,04,18,9.10
2019,03,21,04,19,9.10
2019,03,21,04,20,9.00
2019,03,21,04,21,8.90
2019,03,21,04,22,8.90
2019,03,21,04,23,8.90
2019,03,21,04,24,8.90
2019,03,21,04,25,8.90
2019,03,21,04,26,8.80
2019,03,21,04,27,8.80
2019,03,21,04,28,8.80
2019,03,21,04,29,8.70
2019,03,21,04,30,8.70
2019,03,21,04,31,8.70
2019,03,21,04,32,8.60
2019,03,21,04,33,8.60
2019,03,21,04,34,8.60
2019,03,21,04,35,8.50
2019,03,21,04,36,8.50
2019,03,21,04,37,8.50
2019,03,21,04,38,8.40
2019,03,21,04,39,8.40
2019,03,21,04,40,8.30
2019,03,21,04,41,8.30
2019,03,21,04,42,8.30
2019,03,21,04,43,8.20
2019,03,21,04,44,8.20
2019,03,21,04,45,8.10
2019,03,21,04,46,8.10
2019,03,21,04,47,8.10
2019,03,21,04,48,8.10
2019,03,21,04,49,8.00
2019,03,21,04,50,8.00
2019,03,21,04,51,8.00
2019,03,21,04,52,8.00
2019,03,21,04,53,7.90
2019,03,21,04,54,7.90
2019,03,21,04,55,7.90
2019,03,21,04,56,7.90
2019,03,21,04,57,7.90
2019,03,21,04,58,7.90
2019,03,21,04,59,7.90
2019,03,21,05,00,7.90
2019,03,21,05,01,7.80
2019,03,21,05,02,7.80
2019,03,21,05,03,7.80
2019,03,21,05,04,7.80
2019,03,21,05,05,7.80
2019,03,21,05,06,7.80
2019,03,21,05,07,7.80
2019,03,21,05,08,7.80
2019,03,21,05,09,7.80
2019,03,21,05,10,7.80
2019,03,21,05,11,7.80
2019,03,21,05,12,7.80
2019,03,21,05,13,7.80
2019,03,21,05,14,7.80
2019,03,21,05,15,7.80
2019,03,21,05,16,7.90
2019,03,21,05,17,7.90
2019,03,21,05,18,8.00
2019,03,21,05,19,8.00
2019,03,21,05,20,8.10
2019,03,21,05,21,8.10
2019,03,21,05,22,8.10
2019,03,21,05,23,8.20
2019,03,21,05,24,8.30
2019,03,21,05,25,8.30
2019,03,21,05,26,8.30
2019,03,21,05,27,8.40
2019,03,21,05,28,8.40
2019,03,21,05,29,8.50
2019,03,21,05,30,8.60
2019,03,21,05,31,8.60
2019,03,21,05,32,8.60
2019,03,21,05,33,8.60
2019,03,21,05,34,8.60
2019,03,21,05,35,8.60
2019,03,21,05,36,8.60
2019,03,21,05,37,8.60
2019,03,21,05,38,8.60
2019,03,21,05,39,8.60
2019,03,21,05,40,8.60
2019,03,21,05,41,8.60
2019,03,21,05,42,8.50
2019,03,21,05,43,8.50
2019,03,21,05,44,8.40
2019,03,21,05,45,8.40
2019,03,21,05,46,8.40
2019,03,21,05,47,8.30
2019,03,21,05,48,8.30
2019,03,21,05,49,8.30
2019,03,21,05,50,8.30
2019,03,21,05,51,8.20
2019,03,21,05,52,8.20
2019,03,21,05,53,8.20
2019,03,21,05,54,8.10
2019,03,21,05,55,8.10
2019,03,21,05,56,8.10
2019,03,21,05,57,8.10
2019,03,21,05,58,8.10
2019,03,21,05,59,8.10
2019,03,21,06,00,8.10
2019,03,21,06,01,8.10
2019,03,21,06,02,8.10
2019,03,21,06,03,8.10
2019,03,21,06,04,8.10
2019,03,21,06,05,8.10
2019,03,21,06,06,8.10
2019,03,21,06,07,8.10
2019,03,21,06,08,8.10
2019,03,21,06,09,8.10
2019,03,21,06,10,8.20
2019,03,21,06,11,8.20
2019,03,21,06,12,8.20
2019,03,21,06,13,8.20
2019,03,21,06,14,8.20
2019,03,21,06,15,8.20
2019,03,21,06,16,8.20
2019,03,21,06,17,8.20
2019,03,21,06,18,8.20
2019,03,21,06,19,8.20
2019,03,21,06,20,8.20
2019,03,21,06,21,8.20
2019,03,21,06,22,8.20
2019,03,21,06,23,8.20
2019,03,21,06,24,8.20
2019,03,21,06,25,8.20
2019,03,21,06,26,8.20
2019,03,21,06,27,8.20
2019,03,21,06,28,8.20
2019,03,21,06,29,8.20
2019,03,21,06,30,8.20
2019,03,21,06,31,8.20
2019,03,21,06,32,8.20
2019,03,21,06,33,8.20
2019,03,21,06,34,8.20
2019,03,21,06,35,8.20
2019,03,21,06,36,8.10
2019,03,21,06,37,8.10
2019,03,21,06,38,8.10
2019,03,21,06,39,8.10
2019,03,21,06,40,8.10
2019,03,21,06,41,8.10
2019,03,21,06,42,8.10
2019,03,21,06,43,8.00
2019,03,21,06,44,8.10
2019,03,21,06,45,8.00
2019,03,21,06,46,8.00
2019,03,21,06,47,8.00
2019,03,21,06,48,8.10
2019,03,21,06,49,8.10
2019,03,21,06,50,8.10
2019,03,21,06,51,8.00
2019,03,21,06,52,8.00
2019,03,21,06,53,8.00
2019,03,21,06,54,8.00
2019,03,21,06,55,8.00
2019,03,21,06,56,8.00
2019,03,21,06,57,8.00
2019,03,21,06,58,8.00
2019,03,21,06,59,7.90
2019,03,21,07,00,8.00
2019,03,21,07,01,7.90
2019,03,21,07,02,7.90
2019,03,21,07,03,7.90
2019,03,21,07,04,7.90
2019,03,21,07,05,7.90
2019,03,21,07,06,7.80
2019,03,21,07,07,7.80
2019,03,21,07,08,7.80
2019,03,21,07,09,7.80
2019,03,21,07,10,7.80
2019,03,21,07,11,7.80
2019,03,21,07,12,7.70
2019,03,21,07,13,7.70
2019,03,21,07,14,7.70
2019,03,21,07,15,7.60
2019,03,21,07,16,7.60
2019,03,21,07,17,7.50
2019,03,21,07,18,7.40
2019,03,21,07,19,7.40
2019,03,21,07,20,7.40
2019,03,21,07,21,7.40
2019,03,21,07,22,7.30
2019,03,21,07,23,7.30
2019,03,21,07,24,7.30
2019,03,21,07,25,7.30
2019,03,21,07,26,7.20
2019,03,21,07,27,7.20
2019,03,21,07,28,7.20
2019,03,21,07,29,7.10
2019,03,21,07,30,7.10
2019,03,21,07,31,7.10
2019,03,21,07,32,7.10
2019,03,21,07,33,7.10
2019,03,21,07,34,7.10
2019,03,21,07,35,7.10
2019,03,21,07,36,7.00
2019,03,21,07,37,7.10
2019,03,21,07,38,7.00
2019,03,21,07,39,7.10
2019,03,21,07,40,7.10
2019,03,21,07,41,7.10
2019,03,21,07,42,7.10
2019,03,21,07,43,7.10
2019,03,21,07,44,7.20
2019,03,21,07,45,7.20
2019,03,21,07,46,7.20
2019,03,21,07,47,7.20
2019,03,21,07,48,7.20
2019,03,21,07,49,7.20
2019,03,21,07,50,7.20
2019,03,21,07,51,7.20
2019,03,21,07,52,7.20
2019,03,21,07,53,7.30
2019,03,21,07,54,7.30
2019,03,21,07,55,7.30
2019,03,21,07,56,7.30
2019,03,21,07,57,7.30
2019,03,21,07,58,7.30
2019,03,21,07,59,7.30
2019,03,21,08,00,7.30
2019,03,21,08,01,7.30
2019,03,21,08,02,7.30
2019,03,21,08,03,7.30
2019,03,21,08,04,7.30
2019,03,21,08,05,7.30
2019,03,21,08,06,7.30
2019,03,21,08,07,7.30
2019,03,21,08,08,7.30
2019,03,21,08,09,7.30
2019,03,21,08,10,7.30
2019,03,21,08,11,7.30
2019,03,21,08,12,7.30
2019,03,21,08,13,7.30
2019,03,21,08,14,7.20
2019,03,21,08,15,7.20
2019,03,21,08,16,7.20
2019,03,21,08,17,7.20
2019,03,21,08,18,7.20
2019,03,21,08,19,7.20
2019,03,21,08,20,7.20
2019,03,21,08,21,7.20
2019,03,21,08,22,7.20
2019,03,21,08,23,7.20
2019,03,21,08,24,7.20
2019,03,21,08,25,7.20
2019,03,21,08,26,7.20
2019,03,21,08,27,7.20
2019,03,21,08,28,7.20
2019,03,21,08,29,7.20
2019,03,21,08,30,7.20
2019,03,21,08,31,7.20
2019,03,21,08,32,7.20
2019,03,21,08,33,7.20
2019,03,21,08,34,7.30
2019,03,21,08,35,7.30
2019,03,21,08,36,7.30
2019,03,21,08,37,7.30
2019,03,21,08,38,7.30
2019,03,21,08,39,7.30
2019,03,21,08,40,7.30
2019,03,21,08,41,7.30
2019,03,21,08,42,7.30
2019,03,21,08,43,7.30
2019,03,21,08,44,7.30
2019,03,21,08,45,7.30
2019,03,21,08,46,7.30
2019,03,21,08,47,7.30
2019,03,21,08,48,7.30
2019,03,21,08,49,7.30
2019,03,21,08,50,7.30
2019,03,21,08,51,7.30
2019,03,21,08,52,7.30
2019,03,21,08,53,7.30
2019,03,21,08,54,7.30
2019,03,21,08,55,7.30
2019,03,21,08,56,7.30
2019,03,21,08,57,7.30
2019,03,21,08,58,7.30
2019,03,21,08,59,7.30
2019,03,21,09,00,7.30
2019,03,21,09,01,7.30
2019,03,21,09,02,7.30
2019,03,21,09,03,7.30
2019,03,21,09,04,7.30
2019,03,21,09,05,7.30
2019,03,21,09,06,7.30
2019,03,21,09,07,7.30
2019,03,21,09,08,7.30
2019,03,21,09,09,7.30
2019,03,21,09,10,7.30
2019,03,21,09,11,7.30
2019,03,21,09,12,7.30
2019,03,21,09,13,7.30
2019,03,21,09,14,7.30
2019,03,21,09,15,7.40
2019,03,21,09,16,7.30
2019,03,21,09,17,7.30
2019,03,21,09,18,7.30
2019,03,21,09,19,7.30
2019,03,21,09,20,7.40
2019,03,21,09,21,7.40
2019,03,21,09,22,7.40
2019,03,21,09,23,7.40
2019,03,21,09,24,7.40
2019,03,21,09,25,7.40
2019,03,21,09,26,7.40
2019,03,21,09,27,7.40
2019,03,21,09,28,7.40
2019,03,21,09,29,7.40
2019,03,21,09,30,7.40
2019,03,21,09,31,7.40
2019,03,21,09,32,7.40
2019,03,21,09,33,7.40
2019,03,21,09,34,7.40
2019,03,21,09,35,7.40
2019,03,21,09,36,7.50
2019,03,21,09,37,7.50
2019,03,21,09,38,7.50
2019,03,21,09,39,7.50
2019,03,21,09,40,7.50
2019,03,21,09,41,7.50
2019,03,21,09,42,7.60
2019,03,21,09,43,7.60
2019,03,21,09,44,7.60
2019,03,21,09,45,7.60
2019,03,21,09,46,7.60
2019,03,21,09,47,7.60
2019,03,21,09,48,7.60
2019,03,21,09,49,7.70
2019,03,21,09,50,7.70
2019,03,21,09,51,7.70
2019,03,21,09,52,7.70
2019,03,21,09,53,7.70
2019,03,21,09,54,7.70
2019,03,21,09,55,7.70
2019,03,21,09,56,7.80
2019,03,21,09,57,7.80
2019,03,21,09,58,7.80
2019,03,21,09,59,7.80
2019,03,21,10,00,7.80
2019,03,21,10,01,7.80
2019,03,21,10,02,7.80
2019,03,21,10,03,7.90
2019,03,21,10,04,7.90
2019,03,21,10,05,7.90
2019,03,21,10,06,7.90
2019,03,21,10,07,7.90
2019,03,21,10,08,8.00
2019,03,21,10,09,8.00
2019,03,21,10,10,8.00
2019,03,21,10,11,8.00
2019,03,21,10,12,8.00
2019,03,21,10,13,8.10
2019,03,21,10,14,8.10
2019,03,21,10,15,8.10
2019,03,21,10,16,8.10
2019,03,21,10,17,8.10
2019,03,21,10,18,8.10
2019,03,21,10,19,8.20
2019,03,21,10,20,8.20
2019,03,21,10,21,8.20
2019,03,21,10,22,8.20
2019,03,21,10,23,8.20
2019,03,21,10,24,8.20
2019,03,21,10,25,8.20
2019,03,21,10,26,8.20
2019,03,21,10,27,8.20
2019,03,21,10,28,8.30
2019,03,21,10,29,8.30
2019,03,21,10,30,8.30
2019,03,21,10,31,8.30
2019,03,21,10,32,8.30
2019,03,21,10,33,8.30
2019,03,21,10,34,8.30
2019,03,21,10,35,8.30
2019,03,21,10,36,8.30
2019,03,21,10,37,8.30
2019,03,21,10,38,8.30
2019,03,21,10,39,8.30
2019,03,21,10,40,8.30
2019,03,21,10,41,8.40
2019,03,21,10,42,8.40
2019,03,21,10,43,8.40
2019,03,21,10,44,8.40
2019,03,21,10,45,8.40
2019,03,21,10,46,8.40
2019,03,21,10,47,8.40
2019,03,21,10,48,8.50
2019,03,21,10,49,8.50
2019,03,21,10,50,8.60
2019,03,21,10,51,8.60
2019,03,21,10,52,8.60
2019,03,21,10,53,8.60
2019,03,21,10,54,8.60
2019,03,21,10,55,8.60
2019,03,21,10,56,8.70
2019,03,21,10,57,8.70
2019,03,21,10,58,8.70
2019,03,21,10,59,8.70
2019,03,21,11,00,8.80
2019,03,21,11,01,8.80
2019,03,21,11,02,8.80
2019,03,21,11,03,8.80
2019,03,21,11,04,8.90
2019,03,21,11,05,8.90
2019,03,21,11,06,8.90
2019,03,21,11,07,8.90
2019,03,21,11,08,8.90
2019,03,21,11,09,8.90
2019,03,21,11,10,9.00
2019,03,21,11,11,8.90
2019,03,21,11,12,8.90
2019,03,21,11,13,8.90
2019,03,21,11,14,8.90
2019,03,21,11,15,8.90
2019,03,21,11,16,8.90
2019,03,21,11,17,8.90
2019,03,21,11,18,8.80
2019,03,21,11,19,8.80
2019,03,21,11,20,8.80
2019,03,21,11,21,8.80
2019,03,21,11,22,8.80
2019,03,21,11,23,8.80
2019,03,21,11,24,8.80
2019,03,21,11,25,8.80
2019,03,21,11,26,8.90
2019,03,21,11,27,8.90
2019,03,21,11,28,8.90
2019,03,21,11,29,8.90
2019,03,21,11,30,8.90
2019,03,21,11,31,9.00
2019,03,21,11,32,9.00
2019,03,21,11,33,9.10
2019,03,21,11,34,9.10
2019,03,21,11,35,9.10
2019,03,21,11,36,9.10
2019,03,21,11,37,9.20
2019,03,21,11,38,9.20
2019,03,21,11,39,9.20
2019,03,21,11,40,9.30
2019,03,21,11,41,9.30
2019,03,21,11,42,9.30
2019,03,21,11,43,9.40
2019,03,21,11,44,9.40
2019,03,21,11,45,9.40
2019,03,21,11,46,9.50
2019,03,21,11,47,9.60
2019,03,21,11,48,9.60
2019,03,21,11,49,9.60
2019,03,21,11,50,9.60
2019,03,21,11,51,9.60
2019,03,21,11,52,9.70
2019,03,21,11,53,9.70
2019,03,21,11,54,9.70
2019,03,21,11,55,9.80
2019,03,21,11,56,9.80
2019,03,21,11,57,9.80
2019,03,21,11,58,9.90
2019,03,21,11,59,9.90
2019,03,21,12,00,9.90
2019,03,21,12,01,9.90
2019,03,21,12,02,10.00
2019,03,21,12,03,10.00
2019,03,21,12,04,10.10
2019,03,21,12,05,10.10
2019,03,21,12,06,10.10
2019,03,21,12,07,10.10
2019,03,21,12,08,10.20
2019,03,21,12,09,10.20
2019,03,21,12,10,10.20
2019,03,21,12,11,10.20
2019,03,21,12,12,10.20
2019,03,21,12,13,10.20
2019,03,21,12,14,10.20
2019,03,21,12,15,10.30
2019,03,21,12,16,10.30
2019,03,21,12,17,10.30
2019,03,21,12,18,10.40
2019,03,21,12,19,10.40
2019,03,21,12,20,10.40
2019,03,21,12,21,10.50
2019,03,21,12,22,10.50
2019,03,21,12,23,10.50
2019,03,21,12,24,10.50
2019,03,21,12,25,10.60
2019,03,21,12,26,10.60
2019,03,21,12,27,10.60
2019,03,21,12,28,10.60
2019,03,21,12,29,10.60
2019,03,21,12,30,10.70
2019,03,21,12,31,10.70
2019,03,21,12,32,10.80
2019,03,21,12,33,10.80
2019,03,21,12,34,10.80
2019,03,21,12,35,10.90
2019,03,21,12,36,10.90
2019,03,21,12,37,11.00
2019,03,21,12,38,11.00
2019,03,21,12,39,11.10
2019,03,21,12,40,11.10
2019,03,21,12,41,11.20
2019,03,21,12,42,11.20
2019,03,21,12,43,11.20
2019,03,21,12,44,11.30
2019,03,21,12,45,11.30
2019,03,21,12,46,11.30
2019,03,21,12,47,11.40
2019,03,21,12,48,11.50
2019,03,21,12,49,11.50
2019,03,21,12,50,11.60
2019,03,21,12,51,11.70
2019,03,21,12,52,11.70
2019,03,21,12,53,11.70
2019,03,21,12,54,11.80
2019,03,21,12,55,11.80
2019,03,21,12,56,11.80
2019,03,21,12,57,11.80
2019,03,21,12,58,11.80
2019,03,21,12,59,11.80
2019,03,21,13,00,11.80
2019,03,21,13,01,11.80
2019,03,21,13,02,11.90
2019,03,21,13,03,11.90
2019,03,21,13,04,11.90
2019,03,21,13,05,11.90
2019,03,21,13,06,12.00
2019,03,21,13,07,12.00
2019,03,21,13,08,12.10
2019,03,21,13,09,12.00
2019,03,21,13,10,12.10
2019,03,21,13,11,12.10
2019,03,21,13,12,12.10
2019,03,21,13,13,12.10
2019,03,21,13,14,12.10
2019,03,21,13,15,12.10
2019,03,21,13,16,12.10
2019,03,21,13,17,12.10
2019,03,21,13,18,12.10
2019,03,21,13,19,12.10
2019,03,21,13,20,12.20
2019,03,21,13,21,12.20
2019,03,21,13,22,12.30
2019,03,21,13,23,12.40
2019,03,21,13,24,12.40
2019,03,21,13,25,12.50
2019,03,21,13,26,12.60
2019,03,21,13,27,12.70
2019,03,21,13,28,12.70
2019,03,21,13,29,12.70
2019,03,21,13,30,12.70
2019,03,21,13,31,12.70
2019,03,21,13,32,12.70
2019,03,21,13,33,12.70
2019,03,21,13,34,12.70
2019,03,21,13,35,12.70
2019,03,21,13,36,12.80
2019,03,21,13,37,12.80
2019,03,21,13,38,12.80
2019,03,21,13,39,12.90
2019,03,21,13,40,12.90
2019,03,21,13,41,12.90
2019,03,21,13,42,13.00
2019,03,21,13,43,12.90
2019,03,21,13,44,12.90
2019,03,21,13,45,13.00
2019,03,21,13,46,13.00
2019,03,21,13,47,13.00
2019,03,21,13,48,13.10
2019,03,21,13,49,13.10
2019,03,21,13,50,13.10
2019,03,21,13,51,13.20
2019,03,21,13,52,13.20
2019,03,21,13,53,13.30
2019,03,21,13,54,13.30
2019,03,21,13,55,13.30
2019,03,21,13,56,13.30
2019,03,21,13,57,13.40
2019,03,21,13,58,13.40
2019,03,21,13,59,13.50
2019,03,21,14,00,13.50
2019,03,21,14,01,13.50
2019,03,21,14,02,13.50
2019,03,21,14,03,13.60
2019,03,21,14,04,13.60
2019,03,21,14,05,13.70
2019,03,21,14,06,13.70
2019,03,21,14,07,13.80
2019,03,21,14,08,13.80
2019,03,21,14,09,13.90
2019,03,21,14,10,14.00
2019,03,21,14,11,14.10
2019,03,21,14,12,14.20
2019,03,21,14,13,14.30
2019,03,21,14,14,14.40
2019,03,21,14,15,14.50
2019,03,21,14,16,14.70
2019,03,21,14,17,14.80
2019,03,21,14,18,14.90
2019,03,21,14,19,15.00
2019,03,21,14,20,15.10
2019,03,21,14,21,15.20
2019,03,21,14,22,15.30
2019,03,21,14,23,15.40
2019,03,21,14,24,15.40
2019,03,21,14,25,15.50
2019,03,21,14,26,15.60
2019,03,21,14,27,15.70
2019,03,21,14,28,15.70
2019,03,21,14,29,15.80
2019,03,21,14,30,15.90
2019,03,21,14,31,16.00
2019,03,21,14,32,16.00
2019,03,21,14,33,16.10
2019,03,21,14,34,16.10
2019,03,21,14,35,16.20
2019,03,21,14,36,16.20
2019,03,21,14,37,16.30
2019,03,21,14,38,16.40
2019,03,21,14,39,16.40
2019,03,21,14,40,16.50
2019,03,21,14,41,16.50
2019,03,21,14,42,16.60
2019,03,21,14,43,16.60
2019,03,21,14,44,16.60
2019,03,21,14,45,16.60
2019,03,21,14,46,16.60
2019,03,21,14,47,16.60
2019,03,21,14,48,16.60
2019,03,21,14,49,16.60
2019,03,21,14,50,16.70
2019,03,21,14,51,16.70
2019,03,21,14,52,16.70
2019,03,21,14,53,16.70
2019,03,21,14,54,16.70
2019,03,21,14,55,16.80
2019,03,21,14,56,16.80
2019,03,21,14,57,16.80
2019,03,21,14,58,16.80
2019,03,21,14,59,16.80
2019,03,21,15,00,16.90
2019,03,21,15,01,16.90
2019,03,21,15,02,17.00
2019,03,21,15,03,17.00
2019,03,21,15,04,17.00
2019,03,21,15,05,17.10
2019,03,21,15,06,17.10
2019,03,21,15,07,17.20
2019,03,21,15,08,17.20
2019,03,21,15,09,17.30
2019,03,21,15,10,17.30
2019,03,21,15,11,17.30
2019,03,21,15,12,17.30
2019,03,21,15,13,17.30
2019,03,21,15,14,17.30
2019,03,21,15,15,17.30
2019,03,21,15,16,17.40
2019,03,21,15,17,17.40
2019,03,21,15,18,17.40
2019,03,21,15,19,17.40
2019,03,21,15,20,17.40
2019,03,21,15,21,17.50
2019,03,21,15,22,17.50
2019,03,21,15,23,17.50
2019,03,21,15,24,17.60
2019,03,21,15,25,17.60
2019,03,21,15,26,17.50
2019,03,21,15,27,17.50
2019,03,21,15,28,17.40
2019,03,21,15,29,17.30
2019,03,21,15,30,17.30
2019,03,21,15,31,17.20
2019,03,21,15,32,17.10
2019,03,21,15,33,17.00
2019,03,21,15,34,17.00
2019,03,21,15,35,16.90
2019,03,21,15,36,16.90
2019,03,21,15,37,16.80
2019,03,21,15,38,16.80
2019,03,21,15,39,16.80
2019,03,21,15,40,16.80
2019,03,21,15,41,16.90
2019,03,21,15,42,16.80
2019,03,21,15,43,16.80
2019,03,21,15,44,16.80
2019,03,21,15,45,16.80
2019,03,21,15,46,16.70
2019,03,21,15,47,16.70
2019,03,21,15,48,16.70
2019,03,21,15,49,16.60
2019,03,21,15,50,16.60
2019,03,21,15,51,16.60
2019,03,21,15,52,16.50
2019,03,21,15,53,16.50
2019,03,21,15,54,16.40
2019,03,21,15,55,16.30
2019,03,21,15,56,16.30
2019,03,21,15,57,16.20
2019,03,21,15,58,16.20
2019,03,21,15,59,16.10
2019,03,21,16,00,16.10
2019,03,21,16,01,16.00
2019,03,21,16,02,15.90
2019,03,21,16,03,15.90
2019,03,21,16,04,15.80
2019,03,21,16,05,15.80
2019,03,21,16,06,15.80
2019,03,21,16,07,15.80
2019,03,21,16,08,15.70
2019,03,21,16,09,15.70
2019,03,21,16,10,15.60
2019,03,21,16,11,15.60
2019,03,21,16,12,15.50
2019,03,21,16,13,15.50
2019,03,21,16,14,15.40
2019,03,21,16,15,15.40
2019,03,21,16,16,15.40
2019,03,21,16,17,15.30
2019,03,21,16,18,15.30
2019,03,21,16,19,15.30
2019,03,21,16,20,15.30
2019,03,21,16,21,15.30
2019,03,21,16,22,15.30
2019,03,21,16,23,15.30
2019,03,21,16,24,15.30
2019,03,21,16,25,15.30
2019,03,21,16,26,15.30
2019,03,21,16,27,15.30
2019,03,21,16,28,15.30
2019,03,21,16,29,15.40
2019,03,21,16,30,15.40
2019,03,21,16,31,15.40
2019,03,21,16,32,15.40
2019,03,21,16,33,15.50
2019,03,21,16,34,15.60
2019,03,21,16,35,15.60
2019,03,21,16,36,15.70
2019,03,21,16,37,15.70
2019,03,21,16,38,15.80
2019,03,21,16,39,15.80
2019,03,21,16,40,15.90
2019,03,21,16,41,16.00
2019,03,21,16,42,16.00
2019,03,21,16,43,16.00
2019,03,21,16,44,16.00
2019,03,21,16,45,16.00
2019,03,21,16,46,16.00
2019,03,21,16,47,15.90
2019,03,21,16,48,15.90
2019,03,21,16,49,15.90
2019,03,21,16,50,15.90
2019,03,21,16,51,15.90
2019,03,21,16,52,16.00
2019,03,21,16,53,16.00
2019,03,21,16,54,16.00
2019,03,21,16,55,16.10
2019,03,21,16,56,16.10
2019,03,21,16,57,16.10
2019,03,21,16,58,16.10
2019,03,21,16,59,16.10
2019,03,21,17,00,16.10
2019,03,21,17,01,16.10
2019,03,21,17,02,16.10
2019,03,21,17,03,16.10
2019,03,21,17,04,16.10
2019,03,21,17,05,16.10
2019,03,21,17,06,16.00
2019,03,21,17,07,16.00
2019,03,21,17,08,16.00
2019,03,21,17,09,15.90
2019,03,21,17,10,15.90
2019,03,21,17,11,15.90
2019,03,21,17,12,15.90
2019,03,21,17,13,15.90
2019,03,21,17,14,15.90
2019,03,21,17,15,15.90
2019,03,21,17,16,15.90
2019,03,21,17,17,15.90
2019,03,21,17,18,15.90
2019,03,21,17,19,15.90
2019,03,21,17,20,15.90
2019,03,21,17,21,15.90
2019,03,21,17,22,16.00
2019,03,21,17,23,16.00
2019,03,21,17,24,16.10
2019,03,21,17,25,16.10
2019,03,21,17,26,16.10
2019,03,21,17,27,16.20
2019,03,21,17,28,16.20
2019,03,21,17,29,16.20
2019,03,21,17,30,16.20
2019,03,21,17,31,16.30
2019,03,21,17,32,16.30
2019,03,21,17,33,16.30
2019,03,21,17,34,16.30
2019,03,21,17,35,16.30
2019,03,21,17,36,16.30
2019,03,21,17,37,16.30
2019,03,21,17,38,16.30
2019,03,21,17,39,16.20
2019,03,21,17,40,16.20
2019,03,21,17,41,16.10
2019,03,21,17,42,16.10
2019,03,21,17,43,16.10
2019,03,21,17,44,16.10